sat.trackr.live / text

‹ back to catalog

STARLINK-36436

NORAD 67626 · 2026-020K

PAYLOAD ACTIVE UNKNOWN

§ Identity

Operator
Country
US
Launch date
2026-01-30
Launch site
AFETR
Launch vehicle
Mass (kg)
RCS (m²)

Purposes: comms

External: N2YO · Heavens-Above · Gunter

§ Orbital elements

Epoch: 2026-05-25T04:10:11.146368Z

Period
94.27 min
Inclination
43.0052°
Eccentricity
0.0001306
Mean motion
15.27600054 rev/d
Perigee alt
482.1 km
Apogee alt
483.9 km
Semi-major
6,861.1 km
B*
5.6518e-4
RAAN
67.5908°
Arg perigee
267.4003°
Mean anomaly
92.6700°
Rev number
1,781

§ Raw data

STARLINK-364361 67626U 26020K   26145.17374012  .00015332  00000+0  56518-3 0  99912 67626  43.0052  67.5908 0001306 267.4003  92.6700 15.27600054 17811

JSON: /api/v1/satellites/67626 · /tle

For live sub-satellite position, see the globe view (requires WebGL).

§ Visibility from observer

Set your observer location to see the next 7 days of passes ≥ 10°. The values pass through the URL so the page stays shareable.

No JS? Fill the form by hand. The geolocation button needs JavaScript.